Hourly Data Report for September 10, 2017

All times are specified in Local Standard Time (LST). Add 1 hour to adjust for Daylight Saving Time where and when it is observed.

ARVIAT A
NUNAVUT

61°05'38.000" N
94°04'18.000" W
10.40 m
2300427
71174
YEK

Download Data

Hourly Data (September 2017)
Hourly Data Report for September 10, 2017
Temp Definition
°C
Dew Point Temp Definition
°C
Rel Hum Definition
%
Wind Dir Definition
10's deg

Wind Spd Definition
km/h
Visibility Definition
km
Stn Press Definition
kPa
Hmdx Definition


Wind Chill Definition


Weather Definition


TIME
00:00 Legend Double Dagger 6.9 1.6 69 7 18 16.1 101.88     LegendNANA
01:00 Legend Double Dagger 6.8 1.4 68 6 21 16.1 101.89     LegendNANA
02:00 Legend Double Dagger 6.5 1.2 69 8 22 16.1 101.89     LegendNANA
03:00 Legend Double Dagger 6.3 2.1 74 8 26 16.1 101.83     LegendNANA
04:00 Legend Double Dagger 6.1 2.2 76 9 26 16.1 101.83     LegendNANA
05:00 Legend Double Dagger 6.2 2.6 78 10 28 16.1 101.83     LegendNANA
06:00 Legend Double Dagger 6.2 2.8 79 10 28 16.1 101.80     LegendNANA
07:00 Legend Double Dagger 6.3 2.8 78 10 30 16.1 101.76     LegendNANA
08:00 Legend Double Dagger 6.3 2.7 78 10 30 16.1 101.70     LegendNANA
09:00 Legend Double Dagger 6.2 3.6 83 9 32 16.1 101.57     Rain
10:00 Legend Double Dagger 6.0 3.9 86 9 35 16.1 101.45     Rain
11:00 Legend Double Dagger 6.0 3.7 85 10 39 16.1 101.34     Rain
12:00 Legend Double Dagger 5.8 4.5 91 11 32 9.7 101.38     Rain,Fog
13:00 Legend Double Dagger 5.1 3.4 89 10 43 11.3 101.19     Rain
14:00 Legend Double Dagger 4.9 3.4 90 9 41 9.7 101.06     Rain,Fog
15:00 Legend Double Dagger 5.0 4.1 94 9 48 9.7 100.85     Rain,Fog
16:00 Legend Double Dagger 5.4 4.7 95 9 58 4.8 100.58     Rain,Fog
17:00 Legend Double Dagger 5.6 4.7 94 9 55 16.1 100.31     Rain
18:00 Legend Double Dagger 6.1 4.4 89 10 55 16.1 100.23     LegendNANA
19:00 Legend Double Dagger 6.1 5.4 95 10 58 4.8 100.04     Rain,Fog
20:00 Legend Double Dagger 6.1 5.7 97 10 59 3.6 99.79     Rain,Fog
21:00 Legend Double Dagger 6.4 6.0 97 10 54 12.9 99.61     LegendNANA
22:00 Legend Double Dagger 6.6 6.2 97 10 58 3.2 99.30     Rain,Fog
23:00 Legend Double Dagger 6.7 6.4 98 10 58 1.6 99.03     Heavy Rain,Fog

Notes on Data Quality.

Legend

  • E = Estimated
  • M = Missing
  • NA = Not Available
  • ‡ = Partner data that is not subject to review by the National Climate Archives
Date modified: